User: anonymous   Login
Location: Unspecified
(0.0000°N, 0.0000°E)
Time: 02:58:20
(UTC+00:00)
Language:

STARLINK-2640 - Orbit

View from above orbital plane
View from above orbital plane
View from above satellite
View from above satellite

Ground track
Ground track

The orbit is defined by the following mean orbital elements,

1 48438U          26145.37397095 +.00000000 +00000-0 +57180-4 0 00006
2 48438  53.1579 181.5489 0001128  84.7437 275.3693 15.31701477    01
Epoch (UTC): 25 May 2026 08:58:31
Eccentricity: 0.0001128
inclination: 53.1579°
perigee height: 470 km
apogee height: 472 km
right ascension of ascending node: 181.5489°
argument of perigee: 84.7437°
revolutions per day: 15.31701477
mean anomaly at epoch: 275.3693°

The dashed part of the orbit path shows where the satellite is in the earth's shadow,  

DLR